GW6881 Weather Reports


time (UTC)temp
C
wind
direction
speed
KPH
gust
KPH
rain 1hr
cm
rain 24hr
cm
rain mn
cm
humidity
%
barometer
mb
20260504033017 15 90 3.2 11.3 0.00 0.00 0.00 51 1014.5
20260504032017 15 90 4.8 11.3 0.00 0.00 0.00 51 1014.6
20260504031017 15 90 4.8 9.7 0.00 0.00 0.00 51 1014.7
20260504030017 15 90 4.8 12.9 0.00 0.00 0.00 51 1014.7
20260504025017 15 90 3.2 11.3 0.00 0.00 0.00 51 1014.8
20260504024037 15 90 4.8 12.9 0.00 0.00 0.00 52 1014.8
20260504023037 15 113 1.6 8.0 0.00 0.00 0.00 53 1014.8
20260504022017 15 90 3.2 8.0 0.00 0.00 0.00 53 1014.9
20260504021017 15 90 4.8 11.3 0.00 0.00 0.00 52 1014.9
20260504020017 15 90 3.2 9.7 0.00 0.00 0.00 53 1014.8
20260504015017 15 90 3.2 11.3 0.00 0.00 0.00 52 1014.8
20260504014017 15 90 4.8 8.0 0.00 0.00 0.00 52 1014.8
20260504013017 15 90 3.2 8.0 0.00 0.00 0.00 52 1014.7
20260504012017 15 90 3.2 8.0 0.00 0.00 0.00 52 1014.6
20260504011017 15 90 4.8 11.3 0.00 0.00 0.00 52 1014.5
20260504010017 15 90 4.8 11.3 0.00 0.00 0.00 51 1014.6
20260504005057 15 90 3.2 9.7 0.00 0.00 0.00 51 1014.7
20260504004017 15 90 1.6 6.4 0.00 0.00 0.00 51 1014.7
20260504003057 15 90 1.6 8.0 0.00 0.00 0.00 50 1014.7
20260504002017 15 90 3.2 8.0 0.00 0.00 0.00 49 1014.7
20260504001017 15 90 3.2 8.0 0.00 0.00 0.00 48 1014.8
20260504000017 15 90 3.2 9.7 0.00 0.00 0.00 47 1014.9
20260503235017 16 90 3.2 9.7 0.00 0.00 0.00 46 1014.9
20260503234017 16 90 4.8 14.5 0.00 0.00 0.00 45 1014.9
20260503233057 16 90 4.8 11.3 0.00 0.00 0.00 44 1014.9
20260503232017 16 90 4.8 9.7 0.00 0.00 0.00 44 1014.8
20260503231017 16 90 4.8 11.3 0.00 0.00 0.00 44 1015.0
20260503230117 16 90 4.8 12.9 0.00 0.00 0.00 43 1015.0
20260503225058 16 90 4.8 9.7 0.00 0.00 0.00 43 1015.1
20260503224017 16 90 4.8 9.7 0.00 0.00 0.00 43 1015.2
20260503223017 16 90 4.8 9.7 0.00 0.00 0.00 42 1015.1
20260503222017 16 113 4.8 11.3 0.00 0.00 0.00 43 1015.2
20260503221037 16 90 3.2 11.3 0.00 0.00 0.00 43 1015.3
20260503220017 16 90 3.2 8.0 0.00 0.00 0.00 42 1015.4
20260503215017 16 90 3.2 8.0 0.00 0.00 0.00 42 1015.3
20260503214017 16 90 4.8 9.7 0.00 0.00 0.00 42 1015.4
20260503213017 16 90 3.2 9.7 0.00 0.00 0.00 42 1015.4
20260503212017 16 90 3.2 6.4 0.00 0.00 0.00 43 1015.4
20260503211017 16 90 1.6 8.0 0.00 0.00 0.00 43 1015.4
20260503210017 16 90 1.6 6.4 0.00 0.00 0.00 42 1015.4
20260503205017 16 90 1.6 8.0 0.00 0.00 0.00 42 1015.5
20260503204017 16 90 1.6 4.8 0.00 0.00 0.00 42 1015.5
20260503203017 16 90 1.6 4.8 0.00 0.00 0.00 42 1015.5
20260503202017 16 90 1.6 4.8 0.00 0.00 0.00 42 1015.5
20260503201017 16 90 1.6 6.4 0.00 0.00 0.00 41 1015.6
20260503200017 16 90 1.6 8.0 0.00 0.00 0.00 41 1015.6
20260503195017 16 90 3.2 9.7 0.00 0.00 0.00 41 1015.6
20260503194017 17 90 4.8 12.9 0.00 0.00 0.00 40 1015.6
20260503193037 17 90 3.2 9.7 0.00 0.00 0.00 40 1015.6
20260503192017 17 90 4.8 9.7 0.00 0.00 0.00 40 1015.7
20260503191017 17 90 4.8 11.3 0.00 0.00 0.00 40 1015.6
20260503190017 18 90 3.2 6.4 0.00 0.00 0.00 40 1015.6
20260503185017 18 90 4.8 9.7 0.00 0.00 0.00 40 1015.6
20260503184017 18 90 3.2 8.0 0.00 0.00 0.00 41 1015.4
20260503183017 19 90 4.8 12.9 0.00 0.00 0.00 40 1015.3
20260503182017 19 90 4.8 12.9 0.00 0.00 0.00 40 1015.2
20260503181037 20 90 4.8 14.5 0.00 0.00 0.00 40 1015.1
20260503180017 20 90 3.2 11.3 0.00 0.00 0.00 40 1015.1
20260503175017 20 90 3.2 8.0 0.00 0.00 0.00 39 1015.0
20260503174017 21 90 3.2 9.7 0.00 0.00 0.00 39 1014.8
20260503173017 21 90 4.8 11.3 0.00 0.00 0.00 38 1014.9
20260503172017 21 90 4.8 9.7 0.00 0.00 0.00 38 1014.8
20260503171017 22 90 4.8 11.3 0.00 0.00 0.00 37 1014.8
20260503131017 24 90 8.0 19.3 0.00 0.00 0.00 35 1016.5
20260503081017 20 90 6.4 14.5 0.00 0.00 0.00 38 1019.2
20260503072017 19 90 4.8 16.1 0.00 0.00 0.00 41 1019.4
20260503071017 18 90 3.2 9.7 0.00 0.00 0.00 43 1019.3
20260503055017 15 90 4.8 12.9 0.00 0.00 0.00 52 1018.9
20260503054017 14 90 3.2 8.0 0.00 0.00 0.00 58 1019.0
20260503053037 13 90 1.6 6.4 0.00 0.00 0.00 61 1019.1
20260503052017 12 0.0 1.6 0.00 0.00 0.00 69 1019.1
20260503051017 9 0.0 0.0 0.00 0.00 0.00 78 1019.0
20260503050057 7 0.0 0.0 0.00 0.00 0.00 82 1019.1
20260503045017 7 0.0 0.0 0.00 0.00 0.00 82 1019.0
20260503044017 6 0.0 0.0 0.00 0.00 0.00 81 1019.1
20260503043017 6 0.0 0.0 0.00 0.00 0.00 81 1018.9
20260503042017 6 0.0 0.0 0.00 0.00 0.00 82 1018.7
20260503041017 5 0.0 0.0 0.00 0.00 0.00 82 1018.6
20260503040037 5 0.0 0.0 0.00 0.00 0.00 82 1018.7
20260503035017 5 0.0 0.0 0.00 0.00 0.00 81 1018.6
20260503034017 5 0.0 0.0 0.00 0.00 0.00 81 1018.5